Regional Weather Roundup
Issued by NWS

Home | Current Version | Previous Version | Text Only | Print | Product List | Glossary Off
Versions: 1 2 3 4 5 6 7 8 9 10 11 12 13 14 15 16 17 18 19 20 21 22 23 24 25 26 27 28 29 30 31 32 33 34 35 36 37 38 39 40 41 42 43 44 45 46 47 48 49 50

560
ASUS43 KBIS 161702
RWRND

NORTH DAKOTA REGIONAL WEATHER ROUNDUP
NATIONAL WEATHER SERVICE BISMARCK ND
1100 AM CST MON JAN 16 2017

NOTE: "FAIR" INDICATES FEW OR NO CLOUDS BELOW 12,000 FEET WITH NO
SIGNIFICANT WEATHER AND/OR OBSTRUCTIONS TO VISIBILITY.


NDZ001>003-009>011-017-161800-
NORTHWEST NORTH DAKOTA

CITY           SKY/WX    TMP DP  RH WIND       PRES   REMARKS
WILLISTON      FAIR      10   4  76 SW8       30.14R WCI  -2
MINOT          FAIR      22  15  75 W12       30.06R WCI  10
$$

NDZ018>021-031>035-040>046-161800-
SOUTHWEST NORTH DAKOTA

CITY           SKY/WX    TMP DP  RH WIND       PRES   REMARKS
BISMARCK       FAIR       5  -4  66 W3        30.11R
DICKINSON      FAIR      16   9  74 W17       30.07R WCI   0
GARRISON         N/A     15   9  76 W6        30.08R WCI   6
HETTINGER ARPT CLOUDY    15   7  70 W6        30.10R WCI   6
$$

NDZ004>008-012>016-024-026-027-054-161800-
NORTHEAST NORTH DAKOTA

CITY           SKY/WX    TMP DP  RH WIND       PRES   REMARKS
GRAND FORKS    CLOUDY    12   6  77 S7        30.07R WCI   1
GRND FRKS AFB  CLOUDY    16   6  64 SW7       30.07R WCI   6
DEVILS LAKE    FAIR      11   6  81 W10       30.05R WCI  -3
$$

NDZ022-023-025-028>030-036>039-047>053-161800-
SOUTHEAST NORTH DAKOTA

CITY           SKY/WX    TMP DP  RH WIND       PRES   REMARKS
FARGO          CLOUDY    15  11  83 S5        30.11R WCI   8
JAMESTOWN      FAIR      14   6  70 W3        30.04F
$$





USA.gov is the U.S. government's official web portal to all federal, state and local government web resources and services.